CW5478 Weather Reports


Display with metric or nautical units.
time (UTC)temp
F
wind
direction
speed
MPH
gust
MPH
rain 1hr
in
rain 24hr
in
rain mn
in
humidity
%
barometer
mb
20260901103804 52 270 5.0 8.0 0.00 0.12 0.08 79 1029.8
20260901102804 53 270 2.0 7.0 0.00 0.12 0.08 79 1029.8
20260901101804 53 180 1.0 3.0 0.00 0.12 0.08 78 1029.8
20260901101304 53 222 2.0 6.0 0.00 0.12 0.08 77 1029.8
20260901100804 54 90 3.0 6.0 0.00 0.12 0.08 76 1029.8
20260901100304 55 135 5.0 8.0 0.00 0.12 0.08 72 1029.8
20260901095804 55 225 7.0 10.0 0.00 0.12 0.08 72 1029.8
20260901094804 54 270 9.0 12.0 0.01 0.12 0.08 76 1029.7
20260901094304 53 270 9.0 12.0 0.01 0.12 0.08 79 1029.4
20260901093304 52 225 7.0 9.0 0.01 0.12 0.08 80 1029.8
20260901092804 52 184 7.0 9.0 0.02 0.12 0.08 80 1029.8
20260901092305 52 225 6.0 8.0 0.02 0.12 0.08 80 1029.8
20260901091804 52 189 7.0 10.0 0.02 0.12 0.08 81 1030.1
20260901090804 53 180 5.0 7.0 0.02 0.12 0.08 79 1030.1
20260901090304 53 222 2.0 3.0 0.02 0.12 0.08 77 1030.1
20260901085804 54 270 4.0 7.0 0.02 0.12 0.08 76 1030.1
20260901085306 54 268 5.0 8.0 0.02 0.12 0.08 74 1030.1
20260901084804 55 225 5.0 7.0 0.01 0.11 0.07 73 1030.2
20260901084304 55 238 5.0 8.0 0.01 0.11 0.07 72 1030.1
20260901083804 55 225 5.0 9.0 0.01 0.11 0.07 73 1030.1
20260901083304 54 225 9.0 12.0 0.03 0.11 0.07 75 1030.1
20260901082804 54 225 7.0 10.0 0.04 0.10 0.06 76 1030.1
20260901082306 54 225 4.0 9.0 0.05 0.10 0.06 77 1030.1
20260901081804 54 225 6.0 9.0 0.06 0.10 0.06 77 1030.1
20260901081304 54 225 7.0 10.0 0.06 0.10 0.06 77 1030.1
20260901080804 54 225 9.0 13.0 0.06 0.10 0.06 76 1030.1
20260901080304 54 265 6.0 7.0 0.06 0.10 0.06 77 1030.1
20260901075804 54 225 5.0 8.0 0.06 0.10 0.06 76 1030.1
20260901075307 54 225 5.0 8.0 0.06 0.10 0.06 74 1030.1
20260901074804 54 218 3.0 8.0 0.06 0.10 0.06 75 1030.1
20260901074304 55 256 6.0 9.0 0.06 0.10 0.06 73 1030.2
20260901073804 56 270 5.0 6.0 0.06 0.10 0.06 72 1030.2
20260901073304 57 225 3.0 6.0 0.04 0.08 0.04 70 1030.4
20260901072804 58 180 6.0 8.0 0.02 0.06 0.02 67 1030.4
20260901072308 57 292 2.0 3.0 0.01 0.05 0.01 68 1030.4
20260901071804 57 270 5.0 8.0 0.00 0.04 0.00 69 1030.2
20260901071304 57 249 9.0 10.0 0.00 0.04 0.00 68 1030.1
20260901070804 57 0 2.0 7.0 0.00 0.04 0.00 69 1030.1
20260901070304 57 256 6.0 8.0 0.00 0.04 0.00 68 1030.1
20260901065805 57 270 2.0 3.0 0.00 0.05 0.00 68 1030.1
20260901064804 55 233 6.0 7.0 0.00 0.05 0.00 72 1030.1
20260901064304 55 247 7.0 13.0 0.00 0.05 0.00 72 1030.1
20260901063804 55 270 6.0 8.0 0.00 0.05 0.00 72 1030.1
20260901063304 56 225 5.0 5.0 0.00 0.06 0.00 72 1030.1
20260901062804 56 228 5.0 7.0 0.00 0.06 0.00 72 1030.1
20260901062309 56 247 5.0 7.0 0.00 0.06 0.00 72 1030.1
20260901061804 56 225 5.0 6.0 0.00 0.06 0.00 72 1030.1
20260901061304 56 225 6.0 7.0 0.00 0.06 0.00 72 1030.4
20260901060900 56 192 3.0 3.0 0.00 0.06 0.00 72 1030.2
20260901055804 55 225 5.0 8.0 0.00 0.06 0.06 74 1030.4
20260901055306 55 225 6.0 8.0 0.00 0.06 0.06 75 1030.2
20260901054804 56 195 4.0 6.0 0.00 0.06 0.06 73 1030.4
20260901054304 56 270 5.0 7.0 0.00 0.07 0.06 72 1030.4
20260901053304 56 315 2.0 5.0 0.00 0.07 0.06 72 1030.4
20260901052805 56 270 3.0 7.0 0.00 0.07 0.06 73 1030.4
20260901052306 55 270 5.0 7.0 0.00 0.08 0.06 74 1030.7
20260901051804 55 270 5.0 7.0 0.00 0.08 0.06 74 1030.4
20260901051304 56 247 6.0 8.0 0.00 0.08 0.06 73 1030.4
20260901050805 55 247 6.0 8.0 0.00 0.08 0.06 74 1030.4
20260901050304 55 265 5.0 7.0 0.00 0.08 0.06 75 1030.4
20260901045804 55 225 6.0 7.0 0.00 0.08 0.06 75 1030.4
20260901045306 55 180 3.0 7.0 0.00 0.08 0.06 75 1030.4
20260901044804 56 225 5.0 7.0 0.00 0.08 0.06 73 1030.8
20260901044305 55 247 2.0 2.0 0.00 0.08 0.06 73 1030.8
20260901043804 55 247 3.0 7.0 0.00 0.08 0.06 75 1030.8
20260901043304 55 241 6.0 8.0 0.00 0.08 0.06 75 1030.8
20260901042804 55 225 2.0 6.0 0.00 0.08 0.06 74 1030.8
20260901042306 55 225 4.0 5.0 0.00 0.08 0.06 73 1030.4
20260901041804 55 225 4.0 7.0 0.00 0.08 0.06 74 1030.7
20260901041304 55 270 5.0 8.0 0.00 0.08 0.06 75 1030.5
20260901040804 55 225 3.0 5.0 0.00 0.08 0.06 75 1030.5
20260901035306 55 180 2.0 5.0 0.00 0.08 0.06 77 1030.8
20260901034804 55 247 3.0 5.0 0.00 0.08 0.06 77 1030.8
20260901034304 54 225 3.0 6.0 0.00 0.08 0.06 78 1030.8
20260901033304 54 225 5.0 6.0 0.00 0.08 0.06 79 1030.8
20260901032306 54 169 6.0 8.0 0.00 0.08 0.06 79 1030.8
20260901031305 54 135 3.0 6.0 0.00 0.08 0.06 79 1030.8
20260901030804 54 157 1.0 3.0 0.00 0.08 0.06 79 1030.8
20260901030304 54 180 3.0 6.0 0.01 0.08 0.06 80 1030.8
20260901025804 54 180 3.0 7.0 0.03 0.08 0.06 79 1030.4
20260901024804 55 136 6.0 8.0 0.03 0.08 0.06 77 1030.4
20260901024304 55 212 6.0 9.0 0.03 0.08 0.06 76 1030.1
20260901023805 55 247 8.0 9.0 0.03 0.08 0.06 77 1030.1
20260901023304 55 225 6.0 9.0 0.03 0.08 0.06 77 1030.4
20260901022804 55 231 6.0 8.0 0.03 0.08 0.06 76 1030.1
20260901022306 55 225 3.0 6.0 0.03 0.08 0.06 75 1030.4
20260901021804 56 0 3.0 6.0 0.03 0.08 0.06 74 1030.4
20260901021304 56 18 3.0 6.0 0.03 0.08 0.06 73 1030.5
20260901020805 57 0 5.0 7.0 0.03 0.08 0.06 71 1030.8
20260901020304 58 275 3.0 8.0 0.02 0.07 0.05 69 1031.1
20260901015804 58 65 6.0 9.0 0.00 0.05 0.03 69 1031.1
20260901015305 58 71 3.0 9.0 0.00 0.05 0.03 69 1030.8
20260901014804 59 201 7.0 10.0 0.00 0.05 0.03 69 1030.4
20260901014305 59 203 8.0 12.0 0.00 0.05 0.03 67 1030.4
20260901013804 59 225 12.0 16.0 0.01 0.05 0.03 66 1030.4
20260901013304 59 225 12.0 15.0 0.01 0.05 0.03 67 1030.1
20260901012805 58 248 10.0 14.0 0.01 0.05 0.03 70 1030.1
20260901012306 58 242 10.0 14.0 0.01 0.05 0.03 72 1030.1
20260901011804 57 225 11.0 15.0 0.01 0.05 0.03 72 1030.1
20260901011304 57 231 10.0 14.0 0.01 0.05 0.03 73 1030.1
20260901010804 57 245 10.0 13.0 0.01 0.05 0.03 73 1030.1
20260901005804 59 262 10.0 14.0 0.01 0.05 0.03 66 1029.8
20260901005306 57 225 8.0 12.0 0.01 0.05 0.03 72 1030.1
20260901004804 57 225 7.0 12.0 0.01 0.05 0.03 72 1030.1
20260901004304 58 225 9.0 15.0 0.01 0.05 0.03 68 1030.1
20260901003804 59 221 13.0 18.0 0.00 0.04 0.02 62 1030.1
20260901002305 66 157 13.0 22.0 0.00 0.04 0.02 50 1029.4
20260901001803 67 135 14.0 21.0 0.00 0.04 0.02 49 1029.1
20260901001303 67 144 12.0 17.0 0.00 0.04 0.02 49 1029.1
20260901000804 67 147 9.0 16.0 0.00 0.04 0.02 49 1029.1
20260901000303 67 135 13.0 20.0 0.00 0.04 0.02 50 1029.1
20260831235306 68 136 13.0 20.0 0.00 0.04 0.02 49 1029.1
20260831234803 68 135 15.0 23.0 0.00 0.04 0.02 48 1029.4
20260831234303 69 134 14.0 22.0 0.00 0.04 0.02 48 1029.1
20260831233303 69 130 12.0 18.0 0.00 0.04 0.02 47 1029.1
20260831232803 69 135 13.0 20.0 0.00 0.04 0.02 48 1029.1
20260831232305 69 135 12.0 16.0 0.00 0.04 0.02 48 1029.1
20260831231803 68 131 11.0 16.0 0.00 0.04 0.02 49 1029.1
20260831230803 68 142 11.0 16.0 0.00 0.04 0.02 49 1029.1
20260831225803 69 135 13.0 18.0 0.00 0.04 0.02 47 1029.1
20260831225306 68 129 13.0 17.0 0.00 0.04 0.02 46 1029.1
20260831223803 69 135 14.0 21.0 0.00 0.04 0.02 44 1029.8
20260831223303 70 99 13.0 20.0 0.00 0.04 0.02 44 1029.4
20260831222306 71 152 5.0 13.0 0.00 0.04 0.02 41 1029.4
20260831221803 70 0 5.0 8.0 0.00 0.04 0.02 41 1029.7
20260831221303 70 315 4.0 9.0 0.00 0.04 0.02 42 1029.8
20260831220803 70 315 5.0 8.0 0.00 0.04 0.02 43 1029.8
20260831220303 70 342 3.0 9.0 0.00 0.04 0.02 43 1029.8
20260831215803 71 317 6.0 10.0 0.00 0.04 0.02 42 1030.1
20260831215306 71 18 7.0 10.0 0.00 0.04 0.02 42 1030.1
20260831214803 71 351 5.0 8.0 0.00 0.04 0.02 42 1030.1
20260831214303 71 12 3.0 7.0 0.00 0.04 0.02 43 1030.1
20260831213803 70 24 5.0 7.0 0.00 0.04 0.02 44 1030.1
20260831213303 69 0 5.0 7.0 0.00 0.04 0.02 44 1030.1
20260831212803 69 0 6.0 8.0 0.00 0.04 0.02 45 1030.1
20260831211803 69 90 3.0 6.0 0.00 0.04 0.02 44 1030.1
20260831211303 69 0 5.0 9.0 0.00 0.04 0.02 45 1030.4
20260831210803 69 17 7.0 8.0 0.00 0.04 0.02 45 1030.4
20260831210303 70 77 6.0 9.0 0.00 0.04 0.02 45 1030.4
20260831205305 70 45 4.0 10.0 0.00 0.04 0.02 44 1030.4
20260831204802 70 90 5.0 8.0 0.00 0.04 0.02 45 1030.4
20260831203303 69 45 9.0 12.0 0.00 0.04 0.02 46 1030.4
20260831202306 68 38 8.0 10.0 0.00 0.04 0.02 47 1030.4
20260831201803 68 45 7.0 10.0 0.00 0.04 0.02 47 1030.4
20260831201303 68 43 8.0 12.0 0.00 0.04 0.02 47 1030.4
20260831200803 67 45 2.0 7.0 0.00 0.04 0.02 47 1030.8
20260831200303 68 0 7.0 12.0 0.00 0.04 0.02 48 1030.8
20260831195803 68 49 10.0 13.0 0.00 0.04 0.02 48 1030.8
20260831195306 67 56 7.0 10.0 0.00 0.04 0.02 49 1030.8
20260831194803 67 45 7.0 12.0 0.00 0.04 0.02 49 1031.1
20260831194303 67 56 7.0 12.0 0.00 0.04 0.02 50 1031.1
20260831193803 66 88 9.0 12.0 0.00 0.04 0.02 50 1031.1
20260831193303 66 58 6.0 8.0 0.00 0.04 0.02 51 1031.1
20260831192803 66 68 6.0 10.0 0.00 0.04 0.02 52 1031.1
20260831192305 66 51 6.0 9.0 0.00 0.04 0.02 51 1031.1
20260831191803 66 45 6.0 9.0 0.00 0.04 0.02 51 1031.5
20260831191303 66 5 6.0 9.0 0.00 0.04 0.02 51 1031.5
20260831190803 65 41 6.0 8.0 0.00 0.04 0.02 52 1031.5
20260831190303 65 43 6.0 8.0 0.00 0.04 0.02 52 1031.5
20260831185803 65 45 5.0 8.0 0.00 0.04 0.02 51 1031.8
20260831185306 65 45 4.0 6.0 0.00 0.04 0.02 51 1031.5
20260831184803 64 22 4.0 6.0 0.00 0.04 0.02 52 1031.8
20260831184302 64 358 3.0 6.0 0.00 0.04 0.02 54 1031.8
20260831183802 63 180 1.0 5.0 0.00 0.04 0.02 56 1031.8
20260831183303 62 312 0.0 5.0 0.00 0.04 0.02 59 1031.8
20260831182803 62 315 3.0 6.0 0.00 0.04 0.02 61 1032.1
20260831182305 62 351 6.0 8.0 0.00 0.04 0.02 59 1032.1
20260831181303 60 315 1.0 3.0 0.00 0.04 0.02 61 1032.1
20260831180803 59 270 3.0 7.0 0.00 0.04 0.02 65 1032.1
20260831180303 59 284 6.0 7.0 0.00 0.04 0.02 65 1032.1
20260831175803 59 315 4.0 5.0 0.00 0.04 0.02 64 1032.1
20260831174803 60 247 0.0 0.0 0.00 0.04 0.02 61 1032.5
20260831173803 60 247 2.0 2.0 0.00 0.04 0.02 60 1032.5
20260831173303 60 358 2.0 3.0 0.00 0.04 0.02 61 1032.5
20260831172803 60 315 2.0 5.0 0.00 0.04 0.02 60 1032.5
20260831172306 60 45 3.0 5.0 0.00 0.04 0.02 60 1032.5
20260831171803 60 315 3.0 6.0 0.00 0.04 0.02 59 1032.5
20260831171303 60 337 3.0 5.0 0.00 0.04 0.02 58 1032.1
20260831170803 60 0 3.0 5.0 0.00 0.04 0.02 59 1032.1
20260831170303 60 135 1.0 5.0 0.00 0.04 0.02 60 1032.5
20260831165803 59 180 3.0 6.0 0.00 0.04 0.02 59 1032.5
20260831165305 59 157 3.0 6.0 0.00 0.04 0.02 59 1032.5
20260831164803 59 225 2.0 8.0 0.00 0.04 0.02 61 1032.5
20260831164303 58 180 6.0 8.0 0.00 0.04 0.02 61 1032.1
20260831163303 58 135 5.0 8.0 0.00 0.04 0.02 63 1032.5
20260831162305 58 135 4.0 6.0 0.00 0.04 0.02 63 1032.1
20260831161803 58 135 2.0 5.0 0.00 0.04 0.02 63 1032.1
20260831161303 60 135 3.0 6.0 0.00 0.04 0.02 60 1032.1
20260831160803 61 90 3.0 6.0 0.00 0.04 0.02 56 1032.1
20260831160303 61 269 5.0 9.0 0.00 0.04 0.02 55 1032.1
20260831155803 61 253 6.0 10.0 0.00 0.04 0.02 54 1031.8
20260831155306 61 246 9.0 13.0 0.00 0.04 0.02 54 1031.8
20260831154803 61 238 10.0 15.0 0.00 0.04 0.02 54 1031.8
20260831154303 61 234 10.0 15.0 0.00 0.04 0.02 54 1031.8
20260831153803 61 231 9.0 14.0 0.00 0.04 0.02 55 1031.8
20260831153303 61 241 8.0 15.0 0.00 0.04 0.02 55 1031.8
20260831152803 61 230 11.0 15.0 0.00 0.04 0.02 55 1031.8
20260831152306 60 230 11.0 16.0 0.00 0.04 0.02 56 1031.8
20260831151803 58 255 6.0 9.0 0.00 0.04 0.02 60 1031.8
20260831151303 57 259 3.0 6.0 0.00 0.04 0.02 63 1031.8
20260831150803 57 270 2.0 5.0 0.00 0.04 0.02 64 1031.8
20260831150303 57 225 1.0 3.0 0.00 0.04 0.02 65 1031.8
20260831145802 57 315 3.0 6.0 0.00 0.04 0.02 63 1031.8
20260831145306 57 135 1.0 2.0 0.00 0.04 0.02 62 1031.8
20260831144803 58 135 2.0 3.0 0.00 0.04 0.02 62 1031.8
20260831144303 58 135 3.0 5.0 0.00 0.04 0.02 61 1031.5
20260831143803 58 180 2.0 6.0 0.00 0.04 0.02 61 1031.5
20260831142803 58 254 5.0 6.0 0.00 0.04 0.02 61 1031.8
20260831142305 58 225 5.0 6.0 0.00 0.04 0.02 63 1031.5
20260831141803 57 225 2.0 6.0 0.00 0.04 0.02 65 1031.5
20260831141303 56 270 3.0 8.0 0.00 0.04 0.02 66 1031.8
20260831140803 55 225 3.0 3.0 0.00 0.04 0.02 66 1031.5
20260831140303 55 270 0.0 0.0 0.00 0.04 0.02 66 1031.5
20260831135803 55 270 0.0 0.0 0.00 0.04 0.02 67 1031.5
20260831135306 55 270 0.0 0.0 0.00 0.04 0.02 67 1031.5
20260831133803 56 224 2.0 3.0 0.00 0.04 0.02 67 1031.5
20260831133303 57 135 1.0 3.0 0.00 0.04 0.02 64 1031.1
20260831132803 57 135 4.0 7.0 0.00 0.04 0.02 59 1031.1
20260831132306 57 286 0.0 1.0 0.00 0.04 0.02 60 1031.1
20260831131304 55 270 6.0 7.0 0.00 0.04 0.02 67 1031.1
20260831130803 55 270 7.0 9.0 0.00 0.04 0.02 67 1030.8
20260831130303 55 270 6.0 7.0 0.00 0.04 0.02 66 1030.8
20260831125803 55 270 6.0 6.0 0.00 0.04 0.02 65 1030.8
20260831124803 56 270 3.0 5.0 0.00 0.04 0.02 64 1030.8
20260831123303 55 270 5.0 6.0 0.00 0.04 0.02 66 1030.8
20260831122804 55 225 5.0 6.0 0.00 0.04 0.02 66 1030.8
20260831121804 55 225 5.0 6.0 0.00 0.04 0.02 66 1030.8
20260831121303 55 225 5.0 6.0 0.00 0.04 0.02 64 1030.4
20260831115803 56 288 2.0 6.0 0.00 0.04 0.02 61 1030.1
20260831115306 56 180 3.0 5.0 0.00 0.04 0.02 62 1030.4
20260831114802 56 225 5.0 7.0 0.00 0.04 0.02 64 1030.4
20260831114303 57 225 5.0 7.0 0.00 0.04 0.02 61 1030.1
20260831113803 57 270 6.0 8.0 0.00 0.04 0.02 59 1030.1
20260831113303 57 254 1.0 10.0 0.00 0.04 0.02 61 1030.1
20260831112803 57 284 10.0 13.0 0.00 0.04 0.02 61 1030.1
20260831112306 57 315 3.0 8.0 0.00 0.04 0.02 60 1030.1
20260831111803 56 331 7.0 13.0 0.00 0.04 0.02 62 1030.1
20260831111303 56 270 4.0 8.0 0.00 0.04 0.02 64 1030.1
20260831110804 56 270 6.0 9.0 0.00 0.04 0.02 64 1030.4
20260831110303 56 270 6.0 10.0 0.00 0.04 0.02 63 1030.1
20260831105803 56 0 6.0 9.0 0.00 0.04 0.02 62 1030.1
20260831105306 56 225 7.0 9.0 0.00 0.04 0.02 62 1030.1
20260831104803 57 225 7.0 10.0 0.00 0.04 0.02 61 1030.1